Tracking 28790 objects as of 19-Apr-2024
HD Live streaming from Space Station
objects crossing your sky now

STARLINK-3139

Track STARLINK-3139 now!
10-day predictions
STARLINK-3139 is classified as:


NORAD ID: 49425
Int'l Code: 2021-104T
Perigee: 545.9 km
Apogee: 547.9 km
Inclination: 53.2 °
Period: 95.4 minutes
Semi major axis: 6917 km
RCS: Unknown
Launch date: November 13, 2021
Source: United States (US)
Launch site: AIR FORCE EASTERN TEST RANGE (AFETR)
Your satellite tracking list
Your tracking list is empty




NASA's NSSDC Master Catalog

Two Line Element Set (TLE):
1 49425U 21104T   24109.91822731  .00001143  00000-0  89914-4 0  9995
2 49425  53.2178  85.6328 0001464  86.4329 273.6831 15.08832096134506
Source of the keplerian elements: AFSPC